Simultaneous Nadir Overpasses (SNOs) Predictions

Prediction of SNOs between GOES-16 and NOAA-19 Satellite Orbit:

Table of predicted SNOs for the next 14.0 days since TLE Epoch: 5/29/2020
Index Date Time (GOES-16) GOES-16 Lat,Lon NOAA-19 Lat,Lon Distance(km) Time Diff (sec)
1 05/29/2020 23:02:23 -0.02, -75.19 -0.69, -77.92 313.45 80
2 05/30/2020 22:53:23 -0.02, -75.19 -0.02, -75.07 12.55 80
3 05/31/2020 22:41:42 -0.02, -75.19 0.65, -72.22 338.06 80
4 06/03/2020 11:02:34 0.02, -75.21 0.48, -77.16 221.99 80
5 06/04/2020 10:48:14 0.01, -75.22 -0.20, -74.31 104.14 80
6 06/05/2020 10:36:33 0.01, -75.22 -0.88, -71.46 430.34 80
7 06/06/2020 23:09:23 -0.00, -75.22 -0.95, -79.31 467.72 80
8 06/07/2020 22:57:43 -0.00, -75.22 -0.28, -76.46 141.14 80
9 06/08/2020 22:48:42 0.00, -75.23 0.40, -73.61 185.73 80
10 06/11/2020 11:09:33 0.00, -75.29 0.73, -78.54 370.93 80
11 06/12/2020 10:57:52 0.00, -75.30 0.11, -75.68 43.38 80




NCC Satellite Simultaneous Nadir Overpasses (SNOs) Prediction Service
